Location: Palomar Mountain Lodge
(33.3110°N, 116.8495°W)
Time: 10:30:31
(UTC-07:00)

Cosmos 1674 - Pass Details

Date: 14 June 2018
Orbit: 497 x 519 km, 82.5° (Epoch: 18 October)

Event Time Altitude Azimuth Distance (km) Brightness Sun altitude
Exits shadow 22:24:45 22° 43° (NE) 1,154 4.5 -23.9°
Drops below altitude 10° 22:26:25 10° 26° (NNE) 1,732 5.7 -24.1°
Sets 22:28:41 0° 17° (NNE) 2,626 6.8 -24.4°
